(674) Rachele
ephemeris date magn radius delta ra dec elong phase
Today20 Jan 202511.82.540 AU1.860 AU12h09m+19°11'123.5°18.8°
Opposition7 Mar 202511.22.621 AU1.668 AU11h47m+23°37'159.6°7.6°
(674) Rachele - 2025-01-20
astro.vanbuitenen.nl


 
-1 year
-1 month
-1 day
Now
+1 day
+1 month
+1 year

The interactive orbit chart above shows the body's path through the solar system and its position at the given date. Green and blue lines are shown perpendicular to the ecliptic plane: Green if the path is above the ecliptic plane, blue if it is below. (Left-click and drag to rotate the view; Right-click and drag to move the view; Use scroll wheel to zoom in our out.)

The orbital elements of Rachele are:

            e (Eccentricity)                : 0.1932054
            a (Semimajor axis)              : 2.9236452
            i (Inclination)                 : 13.51387
            Ω (Longitude of ascending node) : 58.06806
            ω (Argument of perihelion)      : 41.07192
            M (Mean anomaly)                : 20.36167
            Epoch                           : 2024 Oct 17

            L (Longitude of perihelion)     : 98.34481
            B (Latitude of perihelion)      : 8.83153
            P (Orbital period in years)     : 5.00            
        

The light curve chart below shows the estimated development of the minor planet's magnitude.


The all-sky chart below shows the path of the minor planet over the same period as the light curve. The current position is marked yellow.





The following chart shows the path of the minor planet in the next few days. The field of view is optimized for (~10x50) binoculars and finderscopes. A more printer-friendly version of the same chart can be found below.




Ephemerides:
Date       Time       RA (2000)    DEC (2000)    delta   radius  elong  phase   PA    magn
2025-01-20 00:00 UT   12 09 15.7   +19 11 01     1.860    2.540  123.5   18.8   282   11.8 
2025-01-20 16:36 UT   12 09 22.4   +19 14 21     1.854    2.541  124.2   18.7   282   11.8 
2025-01-21 00:00 UT   12 09 25.1   +19 15 52     1.852    2.542  124.4   18.6   281   11.8 
2025-01-22 00:00 UT   12 09 32.6   +19 20 52     1.844    2.543  125.4   18.4   281   11.8 
2025-01-23 00:00 UT   12 09 38.5   +19 25 59     1.835    2.545  126.3   18.2   280   11.8 
2025-01-24 00:00 UT   12 09 42.6   +19 31 13     1.827    2.547  127.2   17.9   280   11.7 
2025-01-25 00:00 UT   12 09 44.8   +19 36 36     1.819    2.548  128.2   17.7   279   11.7 
2025-01-26 00:00 UT   12 09 45.3   +19 42 05     1.812    2.550  129.1   17.4   279   11.7 
2025-01-27 00:00 UT   12 09 44.0   +19 47 40     1.804    2.552  130.0   17.2   278   11.7 
2025-01-28 00:00 UT   12 09 40.9   +19 53 22     1.797    2.553  131.0   16.9   277   11.7 
2025-01-29 00:00 UT   12 09 36.0   +19 59 11     1.789    2.555  131.9   16.7   277   11.7 
2025-01-30 00:00 UT   12 09 29.4   +20 05 04     1.782    2.557  132.9   16.4   276   11.6 
2025-01-31 00:00 UT   12 09 20.9   +20 11 04     1.775    2.558  133.8   16.1   275   11.6 
2025-02-01 00:00 UT   12 09 10.6   +20 17 08     1.769    2.560  134.8   15.9   274   11.6 
2025-02-02 00:00 UT   12 08 58.5   +20 23 16     1.762    2.562  135.7   15.6   274   11.6 
2025-02-03 00:00 UT   12 08 44.6   +20 29 29     1.756    2.563  136.7   15.3   273   11.6 
2025-02-04 00:00 UT   12 08 29.0   +20 35 46     1.749    2.565  137.6   15.0   272   11.6 
2025-02-05 00:00 UT   12 08 11.6   +20 42 05     1.743    2.567  138.6   14.7   271   11.5 
2025-02-06 00:00 UT   12 07 52.4   +20 48 27     1.738    2.569  139.5   14.4   270   11.5 
2025-02-07 00:00 UT   12 07 31.6   +20 54 52     1.732    2.570  140.4   14.1   269   11.5 
2025-02-08 00:00 UT   12 07 09.0   +21 01 18     1.727    2.572  141.4   13.8   268   11.5 
2025-02-09 00:00 UT   12 06 44.7   +21 07 46     1.721    2.574  142.3   13.6   267   11.5 
2025-02-10 00:00 UT   12 06 18.8   +21 14 15     1.716    2.575  143.2   13.3   266   11.5 
2025-02-11 00:00 UT   12 05 51.2   +21 20 44     1.711    2.577  144.2   13.0   265   11.5 
2025-02-12 00:00 UT   12 05 22.0   +21 27 13     1.707    2.579  145.1   12.7   263   11.4 
2025-02-13 00:00 UT   12 04 51.2   +21 33 41     1.703    2.581  146.0   12.4   262   11.4 
2025-02-14 00:00 UT   12 04 18.8   +21 40 08     1.698    2.582  146.9   12.1   261   11.4 
2025-02-15 00:00 UT   12 03 44.8   +21 46 34     1.694    2.584  147.8   11.8   259   11.4 
2025-02-16 00:00 UT   12 03 09.4   +21 52 57     1.691    2.586  148.6   11.5   258   11.4 
2025-02-17 00:00 UT   12 02 32.4   +21 59 18     1.687    2.588  149.5   11.2   256   11.4 
2025-02-18 00:00 UT   12 01 54.0   +22 05 36     1.684    2.590  150.3   10.9   254   11.3 
2025-02-19 00:00 UT   12 01 14.2   +22 11 50     1.681    2.591  151.2   10.6   253   11.3 


    Terminology:
            
    delta:  distance between minor planet and earth in AU
    radius: distance between minor planet and sun in AU
    magn:   magnitude (brightness) estimate    
    ra:     right ascension in hours (24h = 360deg)
    dec:    declination in degrees
    elong:  elongation in degrees (angle sun-earth-minor planet)    
    phase:  phase angle in degrees (angle sun-minor planet-earth)        
    AU:     Astronomical Unit (mean distance between earth and sun: 149597870.7 km
    

Orbital elements provided by the MPC (Minor Planet Center).
Calculations by a modified version of AAPlus, a C# implementation of the AA+ project by PJ Naughter from the algorithms presented in the book "Astronomical Algorithms" by Jean Meeus.
NGC2000 dso catalog and star labels from VizieR as provided by the Strasbourg astronomical Data Center.
Tycho2 catalog from the ESO archive.